COSMOS 1375 DEB, 17795

Orbit data source: Space-Track

COSMOS 1375 DEB, 17795 is space debris in LEO originally from a launch on Sun, 06 Jun 1982 UTC launched from the Plesetsk Missile And Space Complex (PKMTR). Debris objects in space refer to the collection of defunct objects orbiting the Earth. Examples of debris include non-operational satellites, rocket bodies, and fragments generated from explosions, collisions, or faulty payload assembly.

Loading next visibility...
Identifier
17795, 1982-055AM
Orbit
LEO
Country
Flag of CISCIS
Related business
Manufacturer
Unknown
Mission
Spacecraft
Bus & Motor
Unknown
Mass
Unknown
Launch date (UTC)
1982-06-06 (44 years ago)
Launch vehicle
Unknown
Launch site
Plesetsk Missile And Space Complex (PKMTR)
Object type
Payload
Rocket body
Debris
Shape & HBR
Unknown shape, 0.2 m
Radar Cross Section
Medium (>0.1 m² and <1 m²)

Expand to show TLE details & history
Last TLE update: 2 days ago

TLE from 2 days ago
0 COSMOS 1375 DEB
1 17795U 82055AM  26171.20323458 -.00000047  00000-0  40671-4 0  9997
2 17795  65.8342 253.0865 0071562 187.3165 199.2175 13.59875620 18638
Epoch: 2026-06-20T04:52Z
TLE epoch observation values (Epoch: 2026-06-20T04:52:39.467Z)
Latitude
23.85123°
Longitude
-77.11632°
Altitude
1,088.248 km
Speed
7.286 km/s
True Right ascension
17h 37m 52s
True Declination
23° 43' 48"
Sunlit
Object was in full shadow at epoch
Visualization orbit readout
Latitude
Unknown
Longitude
Unknown
Altitude
Unknown
Speed
Unknown
Apparent Right ascension
Unknown
Apparent Declination
Unknown
Sunlit
N/A
Visualization observer readout
Local Sidereal Time
23:07:53
Azimuth
Unknown
Elevation
Unknown
Doppler factor
Unknown
Orbital elements
Apogee altitude
1,087.72 km
Perigee altitude
981.624 km
Semi-major axis
7,412.809 km
Eccentricity
0.00716
Inclination
65.8342°
RAAN
253.0865°
Arg. of periapsis
187.3165°
True anomaly
198.94984°
Mean anomaly
199.2175°
Eccentric anomaly
199.08345°
Mean motion
3.4007 °/min
Orbital period
105.86 mins
BSTAR
0.000040671
Loading maneuver chart data...
Computing Atmospheric mass density...
Loading historical data...
Loading historical data...
Loading historical data...
Loading historical data...
Loading historical data...
Loading historical data...
Loading historical data...

Documentation

Showing up to 5 results
|